Regional Weather Roundup
Issued by NWS

Home | Current Version | Previous Version | Graphics & Text | Print | Product List | Glossary On
Versions: 1 2 3 4 5 6 7 8 9 10 11 12 13 14 15 16 17 18 19 20 21 22 23 24 25 26 27 28 29 30 31 32 33 34 35 36 37 38 39 40 41 42 43 44 45 46 47 48 49 50
000
ASUS43 KLOT 290208
RWRIL

ILLINOIS REGIONAL WEATHER ROUNDUP
NATIONAL WEATHER SERVICE CHICAGO/ROMEOVILLE IL
900 PM CDT THU JUL 28 2016

NOTE: "FAIR" INDICATES FEW OR NO CLOUDS BELOW 12,000 FEET WITH NO
SIGNIFICANT WEATHER AND/OR OBSTRUCTIONS TO VISIBILITY.

* THESE STATIONS ARE NOT UNDER NWS QUALITY CONTROL. THEY ALSO MAY NOT
  REPORT WEATHER SUCH AS PRECIPITATION OR FOG.

ILZ001-002-007-009-015-016-024-290300-
NORTHWEST ILLINOIS

CITY           SKY/WX    TMP DP  RH WIND       PRES   REMARKS
MOLINE         CLEAR     78  66  66 NW10      29.89R HX  80
STERLING*      CLEAR     70  69  97 E6        29.90R
SAVANNA*       CLEAR     72  69  89 NE6       29.90R
$$

ILZ003-004-008-010-011-017-018-290300-
NORTH CENTRAL ILLINOIS

CITY           SKY/WX    TMP DP  RH WIND       PRES   REMARKS
ROCKFORD       PTCLDY    74  67  78 NE9       29.93R
FREEPORT*      MOCLDY    70  68  93 NE5       29.93S
ROCHELLE*      CLEAR     71  68  89 E7        29.91S
DE KALB*       CLOUDY    70  67  89 E10       29.94R
$$

ILZ005-006-012>014-019>023-290300-
NORTHEAST ILLINOIS

CITY           SKY/WX    TMP DP  RH WIND       PRES   REMARKS
CHICAGO-OHARE  MOCLDY    72  69  90 N8        29.92S
CHICAGO-MIDWAY CLOUDY    74  70  87 N9        29.91R
AURORA         CLEAR     73  69  87 E8        29.92S
LANSING*       CLEAR     74  70  88 N6        29.91S
JOLIET*        PTCLDY    75  72  90 NE5       29.91S
WAUKEGAN       CLEAR     69  67  93 N7        29.92S
DUPAGE AIRPORT CLEAR     70  65  84 NE7       29.92R
KANKAKEE*      CLEAR     73  69  88 N3        29.91R
WHEELING       CLOUDY    71  68  90 E3        29.93S
MORRIS*        MOCLDY    73  69  89 CALM      29.90S
ROMEOVILLE*    RAIN      73  68  86 NE8       29.91S
NORTHERLY ISL    N/A     73  69  87 N6          N/A
$$

LMZ740>746-290300-
SOUTHERN LAKE MICHIGAN

STATION/POSITION SKY/WX   TEMP    WIND        PRES    VSBY  WAVE
                          AIR SEA DIR/SP/G                  HT/PER
                          (F)     (DEG/KT/KT) (MB)    (MI)  (FT/S)
SOUTHERN BUOY              75 75  100/  8/ 10 1012.6R         2/ 6
WILMETTE HARBOR            75 74   70/  8/ 10   N/A           3/ 5
HARRISON CRIB              74     350/ 14/ 15   N/A
BURNHAM HARBOR             73     350/  6/ 11   N/A
CALUMET HARBOR             75                   N/A
BURNS HARBOR               77     360/  7/  9 1012.5R
MICHIGAN CITY              75      80/  2/  2   N/A
MICHIGAN CITY 6N           76 77   70/  6/ 10   N/A           1/ 3
ST. JOSEPH                 74 77   90/  4/  8 1012.5R         2
$$

ILZ025>027-034>036-040-047-049-050-058-095>099-290300-
WEST-CENTRAL ILLINOIS

CITY           SKY/WX    TMP DP  RH WIND       PRES   REMARKS
QUINCY         CLEAR     73  69  87 N6        29.93R
GALESBURG*     CLEAR     71  68  91 CALM      29.91S
MACOMB*        CLEAR     70  68  93 W5        29.94R
JACKSONVILLE*  MOCLDY    77  71  82 N5        29.90R
PITTSFIELD*    CLEAR     76  70  83 NW3       29.93R
$$

ILZ028>032-037-038-041>044-048-051>054-059>061-290300-
CENTRAL ILLINOIS

CITY           SKY/WX    TMP DP  RH WIND       PRES   REMARKS
PONTIAC        CLEAR     73  72  99 CALM      29.90R
BLOOMINGTON    CLEAR     75  72  90 NW3       29.92R
DECATUR        CLEAR     75  70  84 SW7       29.90R
PEORIA         CLEAR     75  68  78 NW5       29.89S
LACON*         PTCLDY    72  68  88 CALM      29.88R
LINCOLN*       CLEAR     74  73  97 CALM      29.90R
SPRINGFIELD    PTCLDY    77  73  87 CALM      29.90R
TAYLORVILLE    PTCLDY    74  73  95 MISG      29.90R
$$

ILZ033-039-045-046-055>057-062-063-290300-
EAST-CENTRAL ILLINOIS

CITY           SKY/WX    TMP DP  RH WIND       PRES   REMARKS
CHAMPAIGN      CLEAR     72  71  97 S5        29.90R
MATTOON        CLEAR     70  69  97 S5        29.89S
PARIS*         CLEAR     74  74 100 CALM      29.90R
$$

ILZ079-100>102-290300-
SOUTHWEST ILLINOIS

CITY           SKY/WX    TMP DP  RH WIND       PRES   REMARKS
ALTON          MOCLDY    79  73  83 CALM      29.90S HX  82
CAHOKIA*       PTCLDY    80  71  74 N5        29.88F HX  84
SPARTA*        MOCLDY    79  76  90 CALM      29.91S HX  83
$$

ILZ064>066-069>071-074>076-080>082-084>086-088>090-092>094-290300-
SOUTH-CENTRAL ILLINOIS

CITY           SKY/WX    TMP DP  RH WIND       PRES   REMARKS
CARBONDALE     PTCLDY    74  69  85 N9        29.89F
CAIRO*         CLOUDY    75  73  93 N5        29.91R
EFFINGHAM*     CLEAR     72  71  99 W5        29.93R
MARION         CLOUDY    75  72  88 N5        29.91S
MT. VERNON     CLOUDY    73  64  73 MISG      29.90F
CENTRALIA*     PTCLDY    72  71  98 CALM      29.90S
SALEM*         CLOUDY    73  70  92 CALM      29.90S
METROPOLIS*    PTCLDY    79  73  81 SW3       29.91S HX  82
$$

ILZ067-068-072-073-078-083-087-091-290300-
SOUTHEAST ILLINOIS

CITY           SKY/WX    TMP DP  RH WIND       PRES   REMARKS
LAWRENCEVILLE  PTCLDY    73  70  90 CALM      29.90R
FLORA*         MOCLDY    76  75  95 SW6       29.90S
FAIRFIELD*     MOCLDY    73  72  97 CALM      29.89F
HARRISBURG*    CLOUDY    75  74  98 CALM      29.90S
ROBINSON*      PTCLDY    74  70  87 CALM      29.91R
CARMI*         MOCLDY    74  72  92 W7        29.90R
$$

ABBREVIATIONS USED IN REMARKS
   TC - TEMPERATURE IN CELSIUS
  WCI - WIND CHILL INDEX
   HX - HEAT INDEX
  VSB - VISIBILITY
$$





USA.gov is the U.S. government's official web portal to all federal, state and local government web resources and services.